Temp
8 8 7 7 7 7 6 6 6 6 6 6 6 6 6 6 6 6 6 6 5 5 5 4 4 4 3 3 3 3 3 3 3 3 3 3 3 3 2 2 2 2 3 2 2 1 1 1 2 2 2 2
8 8 8 7 7 7 6 6 6 6 6 6 6 6 5 6 6 6 6 6 6 6 6 5 5 5 4 3 3 3 3 3 3 3 3 3 3 2 2 2 2 2 3 2 2 1 1 0 1 3 3 2
8 8 8 8 7 7 7 6 6 6 6 6 6 5 5 5 5 5 5 6 6 6 6 6 5 5 5 3 2 3 3 3 3 2 2 3 2 2 2 2 1 2 3 2 2 1 1 1 1 3 3 3
8 8 8 7 7 7 7 6 6 6 6 5 5 5 5 5 5 5 5 5 5 5 6 6 6 5 5 3 2 2 3 3 2 2 2 2 2 2 2 2 1 2 3 3 2 2 1 1 1 2 2 3
8 8 7 7 7 7 7 6 6 6 5 5 5 4 4 5 5 5 5 5 5 5 5 5 5 5 5 4 3 2 2 2 2 2 2 2 2 2 2 1 1 2 2 3 3 2 1 1 2 2 2 2
8 8 7 7 7 7 6 6 6 6 6 5 5 5 5 5 5 4 5 5 4 5 5 4 4 4 4 4 3 3 3 2 2 2 2 2 2 2 1 1 1 1 1 2 2 2 2 2 2 1 1 1
8 8 7 7 7 7 6 6 6 6 6 5 5 5 5 5 5 5 4 4 4 4 4 4 4 4 3 3 3 3 3 3 3 2 1 1 1 1 1 1 1 1 1 1 1 1 1 1 1 1 1 0
8 8 8 7 7 7 6 6 6 6 6 5 5 5 5 5 5 5 4 4 4 4 4 4 4 4 3 3 3 3 3 3 3 2 2 2 1 1 1 1 0 -0 -0 -0 0 0 0 0 1 1 0 -0
8 8 8 7 7 7 6 6 6 6 6 5 5 5 5 4 4 4 4 4 4 4 4 4 4 3 3 3 2 2 2 2 2 2 2 1 1 1 0 0 -0 -0 -0 -0 -0 -0 -0 -0 -0 -0 -0 -0
9 8 8 8 7 7 7 6 6 6 6 5 5 5 4 4 4 4 4 4 3 4 3 3 3 3 3 3 2 2 1 1 1 1 1 1 1 0 0 -0 -0 -0 -0 -0 -1 -0 -1 -1 -1 -1 -1 -1
9 8 8 8 8 7 7 6 6 6 6 5 5 5 4 4 4 4 4 3 3 3 3 3 3 3 3 3 2 2 1 1 1 1 0 0 0 -0 -0 -0 -1 -1 -1 -1 -1 -1 -1 -1 -1 -1 -1 -2
9 9 8 8 8 7 7 7 6 6 6 5 5 4 4 4 4 4 3 3 3 3 3 3 2 2 2 2 2 2 1 1 0 0 -0 -0 -0 -1 -1 -1 -1 -1 -1 -1 -1 -1 -1 -1 -1 -1 -2 -2
9 9 8 8 8 8 7 7 7 6 6 5 5 5 4 4 4 3 3 3 3 3 2 2 2 2 2 2 2 2 1 0 -0 -0 -1 -1 -1 -1 -1 -1 -1 -1 -1 -1 -1 -2 -1 -1 -2 -2 -2 -2
9 9 8 8 8 8 7 7 7 6 6 5 5 5 4 4 4 3 3 3 3 2 2 2 2 2 2 2 2 1 1 0 -0 -1 -1 -2 -2 -1 -1 -1 -2 -2 -2 -2 -2 -2 -2 -2 -2 -2 -2 -3
9 9 9 9 8 8 8 7 7 6 6 5 5 5 4 4 4 3 3 3 2 2 2 2 2 1 1 1 1 1 1 0 -0 -1 -1 -2 -2 -2 -2 -2 -2 -2 -2 -2 -2 -2 -2 -2 -3 -3 -3 -3
9 9 9 9 8 8 8 7 7 6 6 5 5 5 4 4 4 3 3 3 2 2 2 1 1 1 1 1 1 1 1 0 -0 -1 -1 -2 -2 -2 -2 -2 -2 -2 -2 -2 -2 -3 -3 -3 -3 -3 -3 -3
8 8 8 8 8 8 7 7 6 6 6 5 5 5 4 4 4 3 3 2 2 2 1 1 1 1 1 1 1 0 0 -0 -0 -1 -1 -2 -2 -2 -3 -3 -3 -3 -3 -3 -3 -3 -3 -3 -3 -3 -3 -3
7 7 7 7 7 7 7 6 6 6 6 5 5 5 4 4 3 3 3 2 2 2 1 1 1 1 1 1 0 0 -0 -1 -1 -1 -1 -2 -2 -3 -3 -3 -3 -3 -3 -3 -3 -3 -3 -4 -4 -4 -4 -3
7 7 7 6 6 6 6 6 6 6 5 5 5 4 4 4 3 3 3 2 2 1 1 1 1 1 1 0 -0 -0 -1 -1 -1 -1 -1 -2 -2 -3 -3 -3 -3 -3 -3 -3 -3 -4 -4 -4 -4 -4 -4 -4
6 6 6 6 6 6 6 6 5 5 5 5 4 4 4 3 3 3 2 2 2 1 1 1 1 1 0 0 -0 -1 -1 -1 -1 -1 -2 -2 -2 -3 -3 -3 -3 -3 -4 -4 -4 -4 -4 -4 -4 -4 -4 -4
6 6 5 5 5 5 5 5 5 5 5 4 4 4 3 3 3 3 2 2 2 1 1 1 1 0 0 -0 -1 -1 -1 -1 -1 -2 -2 -2 -2 -3 -4 -4 -4 -4 -4 -4 -4 -4 -4 -4 -5 -5 -4 -4
5 5 5 5 5 4 4 4 4 4 4 4 4 3 3 3 3 2 2 2 1 1 1 1 0 0 -0 -0 -1 -1 -1 -1 -1 -2 -2 -3 -3 -3 -4 -4 -4 -4 -4 -5 -5 -5 -5 -5 -5 -5 -4 -4
5 5 5 5 4 4 4 4 4 3 3 3 3 3 2 2 2 2 2 2 1 1 1 0 0 0 -0 -1 -1 -1 -2 -2 -2 -2 -2 -3 -3 -3 -4 -4 -4 -4 -5 -5 -5 -5 -5 -5 -5 -5 -4 -4
5 5 4 4 4 4 4 4 3 3 3 3 3 2 2 2 2 2 2 2 1 1 1 1 0 0 -0 -1 -1 -2 -2 -2 -2 -2 -3 -3 -3 -4 -4 -4 -5 -5 -5 -5 -6 -6 -5 -5 -5 -5 -4 -4
5 4 4 4 4 4 3 3 3 3 3 3 3 3 2 2 2 2 2 1 1 1 1 1 0 0 -0 -1 -1 -2 -2 -2 -2 -3 -3 -3 -4 -4 -5 -5 -5 -5 -6 -6 -6 -6 -5 -5 -5 -4 -3 -3
5 4 4 4 4 4 3 3 3 3 3 3 3 3 2 2 2 2 1 1 1 1 1 0 0 -0 -0 -1 -1 -2 -2 -2 -2 -3 -3 -4 -4 -5 -5 -5 -5 -5 -6 -6 -6 -6 -6 -6 -5 -3 -3 -2
5 4 4 4 4 4 3 3 3 3 3 3 3 3 2 2 2 2 1 1 1 1 0 0 -0 -0 -1 -1 -1 -2 -2 -2 -2 -3 -3 -4 -4 -5 -5 -6 -5 -5 -6 -6 -6 -6 -7 -6 -5 -4 -3 -3
5 4 4 4 4 4 3 3 3 3 3 3 3 3 2 2 2 2 1 1 1 0 0 0 -0 -0 -1 -1 -1 -2 -2 -3 -3 -3 -3 -3 -4 -5 -6 -6 -6 -6 -6 -6 -6 -6 -7 -6 -6 -5 -4 -4
4 4 4 4 4 4 3 3 3 3 3 3 3 3 3 3 2 2 1 1 1 1 0 0 -0 -0 -1 -1 -1 -2 -2 -3 -3 -3 -3 -4 -4 -5 -6 -6 -6 -6 -6 -6 -6 -6 -7 -6 -6 -5 -5 -5
4 3 3 3 3 3 3 3 3 3 3 3 3 3 3 3 2 2 2 1 1 1 0 0 -0 -0 -1 -1 -1 -1 -2 -2 -3 -3 -3 -4 -4 -5 -5 -6 -6 -6 -6 -6 -6 -6 -6 -6 -6 -5 -6 -6
3 3 3 2 2 2 2 2 2 3 3 3 3 3 3 2 2 2 2 1 1 1 1 0 0 -0 -1 -1 -1 -1 -1 -2 -2 -3 -3 -4 -4 -5 -5 -6 -7 -7 -6 -6 -6 -6 -7 -6 -6 -6 -6 -6
Height
857 857 857 857 857 857 857 856 856 856 855 854 854 853 852 851 850 849 848 848 847 846 845 844 843 842 841 841 840 840 839 838 838 837 836 835 834 833 831 830 829 828 827 826 825 823 822 820 818 816 815 813
856 856 856 856 856 856 856 856 855 855 854 854 853 853 852 851 850 849 848 847 846 845 844 843 842 841 840 840 839 839 838 837 837 836 835 834 833 832 831 829 828 827 826 825 824 823 821 820 817 816 815 813
855 855 855 855 855 855 855 855 855 854 854 854 853 852 851 851 850 849 848 847 846 845 844 843 842 840 839 839 839 838 838 837 836 835 834 834 833 831 830 829 827 826 825 824 823 822 821 819 817 816 815 813
854 854 854 854 854 854 854 854 854 854 853 853 852 852 851 850 849 849 848 846 845 844 843 842 841 840 839 838 838 837 837 836 835 834 834 833 832 831 830 828 826 824 824 823 822 821 820 819 817 815 814 813
852 853 853 853 853 854 854 854 853 853 853 852 851 851 850 850 849 848 847 846 845 844 843 841 840 839 838 838 837 836 836 835 834 833 833 832 831 830 829 827 825 824 823 822 821 819 818 818 816 815 814 812
851 852 852 852 852 853 853 853 852 852 852 851 850 850 849 848 848 847 846 845 844 843 842 841 840 839 838 837 836 835 834 833 833 832 832 831 830 829 827 825 824 823 822 821 820 818 817 816 815 814 813 812
850 850 851 851 851 851 851 851 851 851 850 850 849 849 848 847 847 846 845 844 844 843 841 840 839 838 837 836 835 834 833 832 831 831 830 829 828 827 825 824 823 822 820 820 819 818 816 815 814 813 812 811
849 849 850 850 850 850 850 850 849 849 849 848 848 847 847 846 846 845 844 843 843 842 841 840 839 838 837 836 834 833 832 831 830 829 828 827 826 825 824 823 822 821 820 819 818 817 816 815 814 812 812 811
848 848 848 848 848 848 848 848 848 848 847 847 846 846 845 845 844 844 843 842 842 841 840 839 838 837 836 834 833 832 831 830 829 828 827 825 824 823 823 821 820 820 819 818 817 816 815 814 813 812 811 810
847 847 847 847 847 847 847 847 846 846 845 845 845 844 844 843 843 842 842 841 840 840 839 838 837 836 835 834 832 831 830 829 828 827 826 824 823 822 821 820 820 819 818 817 816 815 814 814 813 812 811 810
846 846 845 846 846 846 845 845 845 844 844 844 843 843 842 842 841 841 840 839 839 838 837 837 836 835 834 833 831 830 829 828 827 826 825 824 823 822 820 820 819 818 817 816 815 814 813 813 812 811 810 809
845 844 844 844 844 844 843 843 843 842 842 842 842 842 841 840 840 839 839 838 837 837 836 835 834 834 833 832 831 830 828 827 826 825 824 823 822 821 820 819 818 817 816 815 815 813 812 811 811 810 809 808
843 843 843 843 843 842 842 842 841 841 841 841 841 840 840 839 838 838 837 836 836 835 834 833 833 832 831 830 829 828 827 826 825 824 824 823 822 820 819 818 817 816 815 814 813 812 811 810 809 808 807 807
842 842 842 842 841 841 841 841 840 840 840 840 839 839 838 838 837 836 835 834 834 833 832 831 831 830 829 829 828 827 826 825 824 823 822 822 821 820 819 817 816 816 814 813 812 811 809 808 807 806 806 805
841 841 841 840 840 840 840 839 839 839 838 838 838 837 837 836 835 834 834 833 832 831 830 829 829 828 827 827 826 825 824 823 823 822 821 820 820 819 818 816 815 815 813 811 811 810 808 807 806 805 804 803
841 841 840 840 839 839 838 838 838 837 837 837 836 836 835 835 834 833 832 831 830 829 828 827 826 826 825 824 824 823 822 821 821 820 819 819 818 817 816 815 814 813 812 810 809 809 808 807 805 804 803 802
841 841 840 839 838 838 837 837 836 836 835 835 835 834 834 833 832 831 830 829 828 827 826 825 824 823 823 822 822 821 820 819 818 818 817 816 816 815 814 813 812 811 810 809 808 807 806 805 804 803 802 800
841 841 840 839 838 837 836 835 835 834 834 833 833 832 832 831 830 829 828 827 826 825 824 823 822 821 820 820 820 819 818 817 816 816 814 814 813 813 812 811 810 809 808 807 806 805 804 803 802 801 800 798
841 840 839 838 837 836 835 834 833 833 832 832 831 831 830 830 829 828 827 825 824 823 822 821 820 818 818 818 818 817 816 816 814 814 813 812 811 810 809 808 807 807 805 804 803 802 801 800 799 799 798 796
841 840 839 838 836 835 834 833 832 832 831 831 830 830 829 828 827 826 825 824 822 821 820 819 818 817 816 816 816 815 814 814 813 812 811 810 809 808 807 806 805 804 803 802 800 800 799 798 797 796 795 794
840 839 838 837 836 835 834 833 832 831 831 830 829 828 827 827 826 824 823 822 821 819 818 817 816 815 815 814 814 813 812 812 811 810 809 808 808 807 805 804 803 801 801 800 798 797 796 795 794 793 792 791
840 839 838 837 836 835 833 832 831 831 830 829 828 827 826 825 824 822 821 820 819 817 816 815 814 813 812 812 812 811 810 810 809 808 807 806 805 805 804 803 801 800 799 798 797 795 793 792 791 790 789 788
840 839 838 836 835 834 833 832 830 830 829 828 827 825 825 823 822 821 819 818 817 815 814 813 812 811 810 810 809 809 808 807 806 806 806 805 803 803 802 801 800 799 797 796 795 793 791 789 788 787 785 785
839 838 837 836 834 833 832 831 830 829 827 826 825 824 823 821 820 819 818 816 815 813 812 810 809 808 808 807 807 806 805 804 804 804 803 802 802 801 800 799 799 798 796 795 793 790 788 786 785 783 782 781
838 837 835 834 833 832 831 830 829 827 826 825 824 822 821 819 818 817 816 814 813 811 810 808 807 806 805 805 804 803 802 802 801 801 800 800 799 798 797 796 796 796 796 794 791 788 785 783 782 779 777 776
837 836 834 833 832 830 829 828 826 825 824 823 821 820 819 817 816 814 813 812 810 809 807 806 804 803 803 802 801 800 800 799 799 798 798 797 796 796 795 794 793 794 795 793 791 788 784 780 777 775 774 773
836 834 833 832 830 828 827 825 824 822 821 819 818 817 816 814 813 811 810 808 807 806 804 803 801 800 800 799 798 798 797 796 796 795 795 795 794 793 793 791 791 792 793 792 791 791 788 783 778 774 772 771
835 833 832 830 829 827 825 822 821 819 818 817 815 813 812 811 809 808 806 805 804 802 801 799 798 797 796 796 795 794 794 793 793 792 792 792 792 791 790 789 788 789 790 790 791 791 788 786 783 778 773 771
834 833 831 829 827 825 822 820 819 817 815 813 812 810 809 808 806 805 803 802 800 799 797 796 795 794 793 792 791 790 790 789 789 788 788 788 788 788 788 787 786 787 788 788 789 789 787 786 784 779 775 774
834 833 831 828 826 823 820 817 815 814 812 810 808 807 805 804 803 801 799 798 797 795 794 793 791 790 789 788 788 787 786 785 785 785 784 785 785 785 785 785 784 784 785 785 784 785 785 784 782 778 778 778
833 831 829 827 825 822 819 815 812 811 809 806 805 803 801 800 799 798 796 794 793 792 790 789 788 787 786 785 785 784 783 782 782 781 781 781 781 781 781 782 781 779 781 782 781 781 781 780 780 779 778 778
Wind_Speed
9 9 8 6 6 5 5 4 4 4 5 5 6 6 8 9 10 11 11 11 9 8 8 8 7 8 8 8 9 9 9 9 9 9 9 10 10 10 11 12 13 12 12 13 14 15 15 16 19 21 23 23
11 11 11 9 9 8 7 7 6 6 6 6 7 7 7 8 9 10 10 11 10 10 10 9 9 8 6 7 9 9 9 9 9 9 9 10 10 10 11 12 13 13 13 13 14 15 15 16 19 21 21 22
13 13 13 12 11 11 10 10 9 8 8 8 8 8 8 8 9 9 9 10 11 11 11 11 11 9 7 7 9 10 10 10 10 10 10 10 10 10 10 12 12 14 15 15 15 15 15 16 19 21 20 21
15 15 15 14 13 13 12 12 12 11 10 10 10 9 9 9 10 10 10 10 10 11 12 12 13 12 10 8 9 10 10 10 10 9 10 11 10 9 10 11 13 15 17 17 16 16 17 17 20 21 20 21
17 17 17 16 16 15 14 14 14 13 12 12 12 11 11 11 12 12 12 12 12 12 12 12 13 12 11 9 8 9 9 9 9 9 10 11 9 9 9 10 14 17 18 17 17 17 18 19 20 21 22 22
19 19 18 18 18 17 16 15 15 15 14 14 14 13 13 14 14 14 14 14 13 14 13 13 12 11 11 10 9 9 9 9 9 9 10 10 9 9 10 13 16 17 17 17 18 18 19 20 21 22 23 24
20 20 20 20 20 18 18 17 17 17 16 16 16 16 16 15 16 16 16 16 15 15 15 14 12 11 11 10 10 10 11 11 11 11 11 11 10 11 13 16 16 16 17 18 19 20 21 22 22 23 23 24
21 21 21 21 21 20 19 19 19 19 18 18 18 17 17 17 17 18 17 17 17 17 16 15 14 13 12 11 10 10 12 13 13 13 14 13 12 13 15 16 16 16 17 18 19 20 21 23 23 24 24 25
22 22 22 22 22 22 21 21 21 20 20 19 19 19 18 18 19 19 19 19 18 18 18 17 17 16 15 14 13 12 13 13 14 15 15 15 14 15 16 16 16 16 17 18 19 21 22 23 24 24 25 24
22 22 23 23 23 23 23 22 22 21 21 21 21 20 20 19 20 20 20 20 20 19 19 19 19 18 17 17 15 14 14 14 14 15 15 15 16 16 17 17 17 17 18 20 21 22 23 24 24 24 24 23
22 23 24 24 23 24 24 24 23 23 23 23 22 22 21 21 22 22 21 22 21 21 20 20 20 19 19 18 17 16 16 16 14 14 15 16 17 17 18 18 18 18 19 21 22 23 24 24 24 23 22 22
22 23 23 24 24 25 25 24 24 24 24 24 23 23 23 23 23 23 23 23 23 22 21 22 21 21 20 20 19 17 17 17 15 15 14 16 17 18 19 20 20 20 21 22 22 24 25 24 22 22 21 21
22 22 23 24 25 25 25 25 25 25 24 24 24 24 24 24 24 24 24 24 24 23 23 23 22 22 22 21 20 19 18 17 17 16 16 16 18 19 20 21 21 22 23 23 23 24 23 22 22 22 22 22
22 22 23 24 25 25 25 25 26 25 25 25 25 25 25 25 25 25 25 25 25 24 25 24 24 23 23 23 22 21 20 18 18 18 18 18 19 21 22 22 22 22 24 24 24 22 22 23 23 23 22 22
21 22 23 24 25 25 25 26 25 25 25 25 25 26 26 26 26 26 25 26 26 26 26 25 25 25 24 25 24 22 21 20 18 19 19 20 21 22 23 23 23 23 24 25 23 22 22 24 24 23 23 25
21 22 23 24 24 25 25 25 25 25 25 25 26 26 26 26 26 26 26 27 27 27 27 27 26 26 26 26 25 23 22 21 20 19 20 20 21 22 23 24 24 24 25 25 23 23 24 25 25 25 26 27
19 21 23 24 24 25 25 25 25 25 25 26 26 26 26 26 26 26 27 27 28 27 27 28 27 28 28 27 26 25 23 23 22 21 20 21 21 22 24 25 26 25 24 24 25 25 25 25 26 26 27 29
17 18 20 21 23 24 24 24 24 24 25 25 25 25 26 26 26 27 27 28 28 28 28 28 29 29 30 29 27 26 25 24 24 22 22 22 22 23 24 25 26 25 25 26 27 27 26 25 26 27 28 29
17 18 19 20 21 21 23 23 23 23 24 25 25 25 25 25 26 27 27 28 28 28 29 29 30 31 31 30 28 27 26 25 25 24 24 23 23 25 25 26 27 26 27 28 28 27 27 27 27 27 28 30
16 17 18 19 20 20 21 21 21 22 23 23 23 24 24 25 26 27 28 28 28 29 30 30 31 32 31 30 28 28 27 27 27 26 25 25 24 26 27 27 28 29 29 29 29 29 28 28 28 28 30 31
17 16 17 18 19 19 19 19 20 21 22 22 23 23 24 25 26 27 28 28 29 29 30 31 32 32 31 30 29 29 28 28 28 27 26 27 26 26 27 28 30 31 30 29 30 30 30 30 29 30 31 31
19 18 18 19 19 19 19 19 19 20 21 22 22 23 24 25 26 27 28 29 29 30 31 31 32 32 32 31 30 29 29 29 29 28 27 28 29 28 27 28 30 31 30 29 29 30 31 31 30 31 32 31
20 20 21 21 22 21 20 19 19 19 20 21 22 23 24 25 26 27 28 29 30 31 32 32 32 33 32 31 30 30 30 30 30 29 28 29 29 29 29 29 29 30 30 29 28 29 31 32 31 32 32 31
21 21 21 21 22 22 22 21 20 19 20 20 21 22 22 23 24 25 27 28 29 31 32 33 33 33 33 32 31 30 31 31 31 30 29 29 28 29 29 29 29 29 28 28 28 29 31 30 30 31 31 30
19 19 19 19 19 20 21 21 20 19 19 19 19 20 19 20 20 21 22 23 26 28 30 32 33 33 33 33 32 32 32 31 31 30 29 29 28 27 27 27 27 26 23 21 20 22 24 26 27 28 28 27
17 18 18 18 18 19 20 20 20 19 19 19 19 19 19 19 18 18 19 19 21 24 27 30 32 33 33 33 33 33 32 31 31 30 29 29 27 27 26 26 26 25 19 14 12 12 13 18 23 21 18 19
18 18 18 19 20 20 20 21 21 21 21 21 21 21 21 21 21 20 19 18 19 21 24 27 29 31 32 33 33 33 33 32 31 31 31 29 28 26 25 24 25 24 20 16 14 10 7 7 10 10 7 9
19 19 20 21 21 22 22 23 23 23 24 24 24 24 23 24 24 22 21 20 19 19 21 23 26 28 29 31 32 33 33 32 32 32 31 30 29 27 24 23 24 23 21 20 15 7 3 2 3 4 4 6
22 22 24 25 25 25 24 24 24 25 27 28 27 27 26 26 26 25 24 23 22 21 20 21 23 25 26 28 30 32 32 33 33 32 32 31 30 28 26 25 24 22 20 21 20 13 7 4 2 3 3 6
25 26 28 30 30 29 27 26 26 27 30 31 31 31 30 29 28 28 28 27 26 24 22 21 22 23 25 26 27 29 32 34 33 33 33 32 31 29 29 27 24 21 21 22 23 22 20 17 12 8 6 5
29 31 32 32 33 33 31 30 30 32 34 34 34 35 34 33 32 31 31 31 29 27 26 24 22 22 24 26 26 28 31 34 34 34 34 33 31 31 30 27 24 24 23 21 22 24 26 28 27 22 13 6
Wind_Direction
268 273 276 281 295 311 314 323 335 343 353 1 8 16 21 25 29 29 29 26 14 357 339 327 321 313 315 329 330 327 329 330 335 333 333 336 333 332 333 339 341 339 345 351 353 351 351 344 335 337 341 342
269 274 278 280 288 300 304 304 312 322 328 336 345 353 1 9 18 21 23 24 17 10 1 349 338 323 320 330 329 323 321 322 325 326 329 332 327 327 329 334 334 330 336 344 346 346 347 342 333 335 338 339
270 274 278 279 285 293 301 300 301 308 314 318 326 334 341 349 0 6 9 16 15 14 11 4 356 349 344 335 328 322 317 317 316 319 325 326 323 325 328 330 324 320 329 335 338 339 341 338 330 332 335 336
269 272 274 276 280 285 294 297 296 301 306 307 313 321 327 333 341 348 352 0 4 7 9 7 5 1 354 339 326 323 318 313 311 313 321 325 322 319 330 328 311 311 321 326 331 334 335 332 328 331 334 335
269 271 271 273 276 279 285 290 291 294 301 304 307 310 316 323 328 335 340 345 349 352 359 3 4 0 355 343 325 318 314 310 309 310 317 323 319 316 327 317 300 305 314 319 326 329 329 327 328 332 332 334
269 270 270 271 274 278 281 287 288 289 298 302 304 305 310 318 321 324 330 335 336 339 348 354 355 352 350 341 323 310 303 301 297 301 311 315 313 312 308 298 298 305 311 318 323 324 324 324 327 330 330 331
268 269 269 271 274 278 279 285 288 288 295 299 300 301 306 313 315 317 321 327 328 330 337 342 341 340 340 334 324 312 302 298 291 291 297 297 292 290 291 295 303 308 311 317 319 320 321 322 324 325 326 326
267 268 269 271 273 276 278 284 288 288 292 295 296 296 301 306 309 311 313 319 321 323 327 331 333 332 332 329 326 316 308 305 298 293 292 290 285 285 293 301 305 306 307 310 313 314 315 317 318 319 321 321
267 267 268 270 273 275 277 282 286 288 290 292 292 292 296 300 304 306 307 312 315 318 320 323 328 328 327 326 325 318 310 305 300 296 293 292 291 292 298 301 300 300 302 304 306 307 308 310 311 314 315 315
267 267 268 271 273 274 276 281 285 286 288 290 291 290 292 295 299 302 303 306 309 313 315 317 321 323 322 322 322 318 312 306 300 295 293 293 292 293 295 295 295 294 296 299 301 303 303 305 306 308 309 310
266 267 269 273 273 274 277 281 283 285 288 290 290 289 289 291 295 298 299 301 305 309 310 311 315 317 318 318 319 317 312 308 302 295 292 291 290 291 292 293 292 291 293 296 298 299 300 300 300 303 304 308
266 269 270 272 272 275 279 281 284 288 289 289 289 287 287 290 292 295 296 298 301 305 305 307 310 312 314 315 316 314 309 307 302 296 291 289 289 289 290 291 290 290 293 294 295 296 297 296 297 300 303 305
268 270 270 272 274 278 281 283 288 290 288 289 288 286 287 288 290 292 294 295 299 301 301 303 305 307 310 312 313 311 308 306 300 295 290 287 286 286 288 288 288 290 292 293 294 294 294 294 297 300 301 302
272 272 272 275 279 281 283 286 291 289 289 290 288 287 287 288 289 291 291 293 296 297 298 300 301 303 307 308 310 309 306 305 299 293 290 285 284 284 285 286 288 290 291 293 293 291 291 294 298 298 297 297
278 277 279 283 284 284 287 290 291 289 291 291 290 290 289 288 288 289 290 291 294 295 296 297 298 300 302 304 307 305 304 303 297 291 286 282 281 282 284 285 286 287 289 291 290 290 291 294 295 293 292 292
287 287 288 289 288 289 292 293 291 291 293 293 293 293 291 290 290 289 290 291 293 294 294 294 294 296 298 302 305 303 302 302 298 291 285 281 280 281 282 284 284 285 286 286 288 290 290 291 289 287 288 288
301 300 298 296 295 296 296 294 293 295 296 296 296 295 293 292 291 290 291 292 293 293 292 292 292 294 296 300 303 302 302 300 299 294 288 285 280 280 280 281 284 285 283 283 287 289 288 288 285 285 287 286
327 320 314 309 306 303 301 298 298 300 301 300 298 297 295 294 293 292 292 292 293 292 291 291 292 293 297 300 301 301 300 298 298 295 291 289 283 281 281 281 284 284 282 284 287 288 287 286 285 285 285 285
344 338 332 327 322 316 309 304 302 305 306 304 301 299 297 296 295 295 294 294 293 292 291 290 292 294 297 300 299 298 298 297 296 294 291 291 287 284 284 283 284 284 285 287 288 288 288 286 285 285 284 286
347 343 340 336 334 329 319 309 306 310 311 307 304 301 300 300 299 298 298 297 294 292 291 290 291 295 297 298 296 296 297 296 295 295 293 292 289 285 285 286 286 287 287 288 289 290 288 286 284 284 284 285
351 345 342 338 336 334 328 321 315 315 313 310 308 306 305 305 304 303 302 300 296 293 292 291 291 294 295 294 293 293 294 294 295 294 291 291 289 284 283 285 286 287 288 288 290 289 287 286 285 284 283 284
359 354 350 346 343 339 336 332 326 322 315 313 314 311 310 309 307 306 305 303 299 295 293 292 291 293 294 292 290 290 291 292 293 292 289 288 289 285 281 281 283 285 287 288 289 288 287 286 285 285 284 284
358 356 355 352 351 348 344 340 334 329 322 320 320 316 316 314 311 309 308 306 302 297 295 293 291 292 293 291 289 287 287 288 289 289 287 285 286 286 282 280 281 283 285 286 286 286 286 287 286 285 285 285
353 351 350 349 349 347 345 342 338 334 328 325 323 321 319 315 312 311 309 308 305 300 296 294 292 292 291 289 286 284 283 286 288 288 286 284 283 283 282 280 280 281 283 284 285 284 284 286 287 288 288 284
347 344 343 340 339 338 336 334 332 330 327 324 321 319 317 314 311 308 306 306 304 301 297 294 292 290 289 287 284 282 283 285 286 286 284 283 281 280 279 279 280 282 283 283 285 287 288 290 291 292 290 282
339 336 334 330 328 327 322 322 321 318 319 318 313 310 309 308 305 301 300 302 301 299 296 293 290 288 288 286 283 281 281 282 283 284 283 281 279 277 276 275 279 282 280 276 280 293 302 303 302 299 291 280
333 329 328 323 319 318 312 313 313 309 309 310 306 304 301 299 298 296 295 298 299 297 295 292 289 288 287 285 283 279 279 279 280 281 282 280 277 277 276 276 278 278 273 267 277 294 297 300 314 314 297 284
333 326 323 319 315 311 306 305 306 303 302 303 302 301 298 295 293 291 291 295 297 295 295 292 289 289 287 286 283 279 275 275 277 278 279 279 277 274 273 274 276 275 270 264 264 274 280 290 314 294 300 316
335 329 324 320 313 307 302 300 300 298 298 300 300 298 298 298 294 290 289 291 292 292 294 291 288 287 285 285 284 280 276 275 277 276 276 275 273 268 265 266 270 271 268 263 253 242 246 281 289 260 312 329
342 337 331 326 317 308 301 297 296 297 298 299 299 298 298 297 294 290 287 287 286 286 288 288 287 284 282 282 282 281 279 277 277 276 275 273 269 265 263 261 264 264 263 264 258 246 244 249 251 264 313 328
345 340 336 333 326 316 306 298 298 301 302 300 300 298 296 294 293 289 285 282 280 278 280 283 284 281 278 277 277 278 275 273 275 275 274 273 267 265 264 259 257 260 261 261 259 252 248 249 251 256 267 271